Weather History for Salida, CO

Change the Weather History Date:

Friday, July 12, 2013

  Actual Average (KGUC) Record (KGUC)
Temperature  
Mean Temperature 74 °F -  
Max Temperature 87 °F 77 °F 89 °F (2003)
Min Temperature 62 °F 44 °F 41 °F (1999)
Cooling Degree Days 10    
Growing Degree Days 24 (Base 50)    
Moisture  
Dew Point 46 °F    
Average Humidity 39    
Maximum Humidity 55    
Minimum Humidity 20    
Precipitation  
Precipitation 0.00 in - - ()
Sea Level Pressure  
Sea Level Pressure 30.31 in    
Wind  
Wind Speed 9 mph (West)    
Max Wind Speed 18 mph    
Max Gust Speed 29 mph    
Visibility 10 miles    
Events      
Averages and records for this station are not official NWS values.
T = Trace of Precipitation, MM = Missing Value Source: NWS Daily Summary

Daily Weather History Graph

Daily Weather History Graph

Search for Another Location

Airport:

Trip Planner

Search our weather history database for the weather conditions in past years. The results will help you decide how hot, cold, wet, or windy it might be!

Date:

Astronomy

Jul. 12, 2013 Rise Set
Actual Time 5:50 AM MDT 8:29 PM MDT
Civil Twilight 5:19 AM MDT 9:00 PM MDT
Nautical Twilight 4:40 AM MDT 9:38 PM MDT
Astronomical Twilight 3:56 AM MDT 10:22 PM MDT
Moon 10:06 AM MDT (7/12) 10:45 PM MDT (7/12)
Length of Visible Light 15h 41m
Length of Day
14h 38m
Waxing Crescent, 18% of the Moon is Illuminated
Jul 12
Waxing Crescent
Jul 15
First Quarter
Jul 22
Full
Jul 29
Last Quarter
Aug 6
New

Hourly Weather History & Observations

Time (MDT) Temp. Dew Point Humidity Pressure Visibility Wind Dir Wind Speed Gust Speed Precip Events Conditions
12:15 AM 72.1 °F 45.9 °F 39% 30.32 in 10.0 mi NW 4.6 mph - N/A   Mostly Cloudy
12:35 AM 71.8 °F 45.0 °F 38% 30.32 in 10.0 mi NW 5.8 mph - N/A   Scattered Clouds
12:55 AM 71.8 °F 44.8 °F 38% 30.31 in 10.0 mi WNW 6.9 mph - N/A   Mostly Cloudy
1:15 AM 69.8 °F 46.2 °F 43% 30.31 in 10.0 mi WNW 3.5 mph - N/A   Scattered Clouds
1:35 AM 69.3 °F 46.0 °F 43% 30.31 in 10.0 mi WNW 5.8 mph - N/A   Mostly Cloudy
1:55 AM 72.0 °F 43.9 °F 36% 30.31 in 10.0 mi WSW 11.5 mph - N/A   Scattered Clouds
2:15 AM 69.8 °F 45.5 °F 42% 30.31 in 10.0 mi SSW 13.8 mph 19.6 mph N/A   Clear
2:35 AM 70.7 °F 45.7 °F 41% 30.31 in 10.0 mi SW 12.7 mph 20.7 mph N/A   Clear
2:55 AM 70.2 °F 46.2 °F 42% 30.30 in 10.0 mi SW 13.8 mph 19.6 mph N/A   Mostly Cloudy
3:15 AM 70.0 °F 45.7 °F 42% 30.29 in 10.0 mi SSW 12.7 mph 19.6 mph N/A   Mostly Cloudy
3:35 AM 69.4 °F 45.7 °F 42% 30.29 in 10.0 mi WSW 11.5 mph - N/A   Scattered Clouds
3:55 AM 68.4 °F 46.2 °F 45% 30.29 in 10.0 mi West 5.8 mph - N/A   Scattered Clouds
4:15 AM 65.8 °F 47.3 °F 51% 30.29 in 10.0 mi NNW 8.1 mph - N/A   Clear
4:35 AM 65.3 °F 46.8 °F 51% 30.30 in 10.0 mi North 3.5 mph - N/A   Clear
4:55 AM 64.9 °F 46.8 °F 52% 30.30 in 10.0 mi NW 5.8 mph - N/A   Clear
5:15 AM 65.3 °F 46.6 °F 51% 30.30 in 10.0 mi WNW 8.1 mph - N/A   Clear
5:35 AM 63.9 °F 46.8 °F 54% 30.30 in 10.0 mi Calm Calm - N/A   Clear
5:55 AM 62.8 °F 46.6 °F 55% 30.31 in 10.0 mi NW 5.8 mph - N/A   Clear
6:15 AM 63.7 °F 45.9 °F 52% 30.31 in 10.0 mi North 4.6 mph - N/A   Clear
6:35 AM 64.4 °F 45.5 °F 50% 30.31 in 10.0 mi NW 8.1 mph - N/A   Clear
6:55 AM 64.8 °F 45.7 °F 50% 30.32 in 10.0 mi NNW 8.1 mph - N/A   Clear
7:15 AM 66.2 °F 45.5 °F 47% 30.32 in 10.0 mi NNW 10.4 mph - N/A   Clear
7:35 AM 66.7 °F 46.0 °F 47% 30.33 in 10.0 mi NNW 8.1 mph - N/A   Clear
7:55 AM 67.6 °F 46.4 °F 46% 30.32 in 10.0 mi NNW 11.5 mph - N/A   Clear
8:15 AM 69.1 °F 47.1 °F 45% 30.32 in 10.0 mi North 10.4 mph - N/A   Clear
8:35 AM 71.2 °F 46.4 °F 41% 30.32 in 10.0 mi North 6.9 mph - N/A   Clear
8:55 AM 73.9 °F 46.6 °F 38% 30.32 in 10.0 mi NNE 8.1 mph - N/A   Clear
9:15 AM 75.7 °F 46.6 °F 35% 30.31 in 10.0 mi North 3.5 mph - N/A   Clear
9:35 AM 77.0 °F 47.1 °F 35% 30.31 in 10.0 mi NNE 6.9 mph - N/A   Clear
9:55 AM 80.4 °F 46.0 °F 30% 30.30 in 10.0 mi NNE 9.2 mph - N/A   Clear
10:15 AM 81.5 °F 45.0 °F 28% 30.30 in 10.0 mi NNE 6.9 mph - N/A   Clear
10:35 AM 83.3 °F 45.0 °F 26% 30.30 in 10.0 mi Calm Calm - N/A   Clear
10:55 AM 85.1 °F 43.5 °F 23% 30.30 in 10.0 mi SSW 13.8 mph 18.4 mph N/A   Clear
11:15 AM 85.3 °F 44.2 °F 24% 30.30 in 10.0 mi South 12.7 mph 18.4 mph N/A   Clear
11:35 AM 86.2 °F 43.2 °F 22% 30.29 in 10.0 mi South 10.4 mph 17.3 mph N/A   Clear
11:55 AM 86.7 °F 42.8 °F 21% 30.29 in 10.0 mi SW 12.7 mph 19.6 mph N/A   Clear
12:15 PM 87.4 °F 43.7 °F 22% 30.29 in 10.0 mi SW 13.8 mph 21.9 mph N/A   Clear
12:35 PM 86.9 °F 41.9 °F 21% 30.28 in 10.0 mi SSW 12.7 mph 23.0 mph N/A   Clear
12:55 PM 83.3 °F 42.3 °F 23% 30.27 in 10.0 mi SW 12.7 mph - N/A   Clear
1:15 PM 86.2 °F 39.9 °F 20% 30.27 in 10.0 mi SW 15.0 mph 21.9 mph N/A   Clear
1:55 PM 78.3 °F 44.1 °F 30% 30.29 in 10.0 mi SW 17.3 mph 28.8 mph N/A   Overcast
2:15 PM 77.2 °F 47.1 °F 35% 30.29 in 10.0 mi WSW 13.8 mph 20.7 mph N/A   Mostly Cloudy
2:35 PM 80.4 °F 44.6 °F 28% 30.29 in 10.0 mi WSW 17.3 mph 25.3 mph N/A   Scattered Clouds
2:55 PM 79.3 °F 48.2 °F 33% 30.28 in 10.0 mi SW 13.8 mph 20.7 mph N/A   Clear
3:15 PM 82.0 °F 46.2 °F 28% 30.28 in 10.0 mi SW 9.2 mph 17.3 mph N/A   Scattered Clouds
3:35 PM 82.4 °F 43.0 °F 25% 30.27 in 10.0 mi West 15.0 mph 20.7 mph N/A   Scattered Clouds
3:55 PM 82.8 °F 43.9 °F 25% 30.27 in 10.0 mi West 17.3 mph 24.2 mph N/A   Scattered Clouds
4:15 PM 81.1 °F 45.0 °F 28% 30.27 in 10.0 mi West 18.4 mph 23.0 mph N/A   Clear
4:35 PM 79.9 °F 45.3 °F 29% 30.28 in 10.0 mi West 13.8 mph - N/A   Clear
4:55 PM 79.0 °F 45.7 °F 31% 30.29 in 10.0 mi WSW 16.1 mph 20.7 mph N/A   Scattered Clouds
5:15 PM 78.1 °F 46.4 °F 33% 30.29 in 10.0 mi WSW 16.1 mph 19.6 mph N/A   Scattered Clouds
5:35 PM 77.9 °F 45.5 °F 32% 30.29 in 10.0 mi West 16.1 mph 21.9 mph N/A   Scattered Clouds
5:55 PM 78.1 °F 45.7 °F 32% 30.31 in 10.0 mi West 8.1 mph 19.6 mph N/A   Overcast
6:15 PM 76.5 °F 46.4 °F 34% 30.32 in 10.0 mi WSW 8.1 mph - N/A   Overcast
6:35 PM 75.2 °F 47.3 °F 37% 30.32 in 10.0 mi WSW 12.7 mph - N/A   Mostly Cloudy
6:55 PM 74.7 °F 47.7 °F 38% 30.32 in 10.0 mi West 13.8 mph 26.5 mph N/A   Scattered Clouds
7:15 PM 75.0 °F 48.6 °F 39% 30.32 in 10.0 mi WNW 10.4 mph - N/A   Clear
7:35 PM 73.9 °F 48.9 °F 41% 30.34 in 10.0 mi NW 5.8 mph - N/A   Clear
7:55 PM 72.7 °F 50.0 °F 45% 30.34 in 10.0 mi NNW 5.8 mph - N/A   Clear
8:15 PM 72.0 °F 50.2 °F 46% 30.34 in 10.0 mi NW 8.1 mph - N/A   Clear
8:35 PM 71.6 °F 50.0 °F 46% 30.34 in 10.0 mi WNW 6.9 mph - N/A   Clear
8:55 PM 72.1 °F 48.6 °F 43% 30.33 in 10.0 mi WNW 4.6 mph - N/A   Clear
9:15 PM 70.9 °F 49.1 °F 46% 30.33 in 10.0 mi West 4.6 mph - N/A   Clear
9:35 PM 68.2 °F 49.1 °F 50% 30.33 in 10.0 mi SW 6.9 mph - N/A   Clear
9:55 PM 68.4 °F 49.3 °F 50% 30.34 in 10.0 mi West 4.6 mph - N/A   Scattered Clouds
10:15 PM 67.8 °F 48.4 °F 50% 30.34 in 10.0 mi West 9.2 mph - N/A   Mostly Cloudy
10:35 PM 67.5 °F 48.2 °F 50% 30.35 in 10.0 mi WSW 6.9 mph - N/A   Mostly Cloudy
10:55 PM 67.1 °F 47.7 °F 50% 30.35 in 10.0 mi WSW 6.9 mph - N/A   Overcast
11:15 PM 67.1 °F 47.3 °F 49% 30.35 in 10.0 mi West 8.1 mph - N/A   Overcast
11:35 PM 67.5 °F 47.3 °F 48% 30.35 in 10.0 mi West 4.6 mph - N/A   Overcast
11:55 PM 66.4 °F 47.3 °F 50% 30.37 in 10.0 mi WSW 5.8 mph - N/A   Mostly Cloudy